WC1Z Weather Reports


Display with metric or nautical units.
time (UTC)temp
F
wind
direction
speed
MPH
gust
MPH
rain 1hr
in
rain 24hr
in
rain mn
in
humidity
%
barometer
mb
20260504213700 78 191 5.0 9.0 0.00 0.00 0.00 53 1012.2
20260504213201 78 208 3.0 8.0 0.00 0.00 0.00 54 1012.3
20260504212700 78 214 5.0 8.0 0.00 0.00 0.00 54 1012.4
20260504212204 78 234 4.0 5.0 0.00 0.00 0.00 55 1012.5
20260504211701 78 179 6.0 10.0 0.00 0.00 0.00 53 1012.5
20260504211200 78 179 4.0 6.0 0.00 0.00 0.00 54 1012.6
20260504210700 78 217 3.0 6.0 0.00 0.00 0.00 54 1012.7
20260504210201 78 202 3.0 6.0 0.00 0.00 0.00 54 1012.8
20260504205700 79 231 6.0 9.0 0.00 0.00 0.00 54 1012.9
20260504205203 79 188 6.0 12.0 0.00 0.00 0.00 53 1012.8
20260504204700 78 199 5.0 11.0 0.00 0.00 0.00 53 1012.9
20260504204200 78 216 4.0 5.0 0.00 0.00 0.00 53 1012.9
20260504203700 78 178 6.0 9.0 0.00 0.00 0.00 52 1013.0
20260504203200 78 200 4.0 10.0 0.00 0.00 0.00 51 1013.2
20260504202700 78 169 8.0 13.0 0.00 0.00 0.00 51 1013.2
20260504202200 78 180 7.0 13.0 0.00 0.00 0.00 51 1013.3
20260504201700 77 233 5.0 9.0 0.00 0.00 0.00 54 1013.4
20260504201200 77 190 4.0 7.0 0.00 0.00 0.00 53 1013.6
20260504200700 77 157 5.0 9.0 0.00 0.00 0.00 52 1013.5
20260504200202 77 173 7.0 12.0 0.00 0.00 0.00 52 1013.6
20260504195700 77 220 7.0 12.0 0.00 0.00 0.00 52 1013.7
20260504195200 77 232 7.0 11.0 0.00 0.00 0.00 51 1013.8
20260504194701 77 166 4.0 9.0 0.00 0.00 0.00 52 1013.9
20260504194201 77 228 8.0 11.0 0.00 0.00 0.00 51 1013.9
20260504193701 77 226 4.0 7.0 0.00 0.00 0.00 52 1014.1
20260504193201 77 214 5.0 9.0 0.00 0.00 0.00 51 1014.2
20260504192700 77 212 4.0 9.0 0.00 0.00 0.00 51 1014.2
20260504192200 76 226 5.0 9.0 0.00 0.00 0.00 50 1014.2
20260504191700 77 175 6.0 9.0 0.00 0.00 0.00 50 1014.4
20260504191201 76 164 6.0 8.0 0.00 0.00 0.00 51 1014.5
20260504190700 76 177 5.0 13.0 0.00 0.00 0.00 51 1014.4
20260504190200 76 228 5.0 8.0 0.00 0.00 0.00 48 1014.6
20260504185700 76 238 5.0 7.0 0.00 0.00 0.00 49 1014.8
20260504185200 76 196 6.0 9.0 0.00 0.00 0.00 51 1014.7
20260504184701 76 213 5.0 8.0 0.00 0.00 0.00 51 1014.9
20260504184207 76 179 3.0 7.0 0.00 0.00 0.00 54 1014.9
20260504183701 75 175 4.0 6.0 0.00 0.00 0.00 53 1014.9
20260504183200 75 178 6.0 13.0 0.00 0.00 0.00 52 1014.9
20260504182700 75 253 7.0 12.0 0.00 0.00 0.00 52 1015.0
20260504182200 75 146 4.0 7.0 0.00 0.00 0.00 52 1015.1
20260504181700 75 173 3.0 5.0 0.00 0.00 0.00 52 1015.2
20260504181201 75 198 2.0 7.0 0.00 0.00 0.00 53 1015.4
20260504180703 75 188 5.0 8.0 0.00 0.00 0.00 54 1015.5
20260504180201 75 185 4.0 10.0 0.00 0.00 0.00 52 1015.6
20260504175700 74 173 2.0 5.0 0.00 0.00 0.00 53 1015.6
20260504175201 74 182 7.0 14.0 0.00 0.00 0.00 52 1015.6
20260504174702 74 157 7.0 9.0 0.00 0.00 0.00 54 1015.7
20260504174201 74 193 5.0 9.0 0.00 0.00 0.00 58 1015.7
20260504173700 74 212 3.0 6.0 0.00 0.00 0.00 55 1015.8
20260504173201 74 153 8.0 12.0 0.00 0.00 0.00 53 1015.8
20260504172701 74 159 8.0 11.0 0.00 0.00 0.00 52 1015.8
20260504172201 74 142 9.0 13.0 0.00 0.00 0.00 52 1015.9
20260504171700 73 145 3.0 6.0 0.00 0.00 0.00 57 1016.1
20260504171200 74 164 10.0 15.0 0.00 0.00 0.00 54 1016.1
20260504170702 73 161 5.0 8.0 0.00 0.00 0.00 55 1016.1
20260504170200 73 237 6.0 11.0 0.00 0.00 0.00 55 1016.3
20260504160200 71 188 4.0 9.0 0.00 0.00 0.00 56 1016.7
20260504150700 69 215 6.0 9.0 0.00 0.00 0.00 61 1016.8
20260504150201 69 186 6.0 11.0 0.00 0.00 0.00 61 1017.0
20260504141201 66 222 3.0 6.0 0.00 0.00 0.00 68 1017.1
20260504140700 66 206 4.0 6.0 0.00 0.00 0.00 70 1017.0
20260504140202 66 209 4.0 8.0 0.00 0.00 0.00 69 1017.0
20260504130700 62 168 0.0 2.0 0.00 0.00 0.00 78 1017.0
20260504130201 61 240 1.0 3.0 0.00 0.00 0.00 79 1016.9
20260504120201 53 0 0.0 0.0 0.00 0.00 0.00 93 1016.2
20260504110701 52 0 0.0 0.0 0.00 0.00 0.00 91 1016.1
20260504110200 52 0 0.0 0.0 0.00 0.00 0.00 91 1016.1
20260504100200 54 0 0.0 0.0 0.00 0.00 0.00 89 1016.4
20260504081701 55 0 0.0 0.0 0.00 0.00 0.00 87 1016.5
20260504081200 56 0 0.0 0.0 0.00 0.00 0.00 87 1016.6
20260504080700 56 0 0.0 0.0 0.00 0.00 0.00 87 1016.6
20260504080200 56 0 0.0 0.0 0.00 0.00 0.00 86 1016.6
20260504070201 58 0 0.0 0.0 0.00 0.00 0.00 83 1017.3
20260504060203 58 0 0.0 0.0 0.00 0.00 0.00 85 1017.9
20260504050700 58 0 0.0 0.0 0.00 0.00 0.00 87 1018.0
20260504050200 57 217 0.0 0.0 0.00 0.00 0.00 89 1018.0
20260504045700 57 228 0.0 1.0 0.00 0.00 0.00 91 1017.9
20260504045200 56 246 0.0 1.0 0.00 0.00 0.00 92 1017.9
20260504044700 56 0 0.0 0.0 0.00 0.00 0.00 92 1017.9
20260504044200 56 0 0.0 0.0 0.00 0.00 0.00 92 1017.9
20260504043701 56 238 0.0 1.0 0.00 0.00 0.00 92 1017.9
20260504043201 56 234 0.0 1.0 0.00 0.00 0.00 92 1017.9
20260504042700 57 239 0.0 2.0 0.00 0.00 0.00 91 1017.9
20260504042201 57 0 0.0 0.0 0.00 0.00 0.00 91 1017.8
20260504041700 57 110 0.0 2.0 0.00 0.00 0.00 91 1017.8
20260504041200 57 112 2.0 2.0 0.00 0.00 0.00 91 1017.7
20260504040701 57 0 0.0 0.0 0.00 0.00 0.00 91 1017.9
20260504040201 57 242 0.0 1.0 0.00 0.00 0.00 91 1018.0
20260504035701 57 265 1.0 2.0 0.00 0.00 0.00 91 1018.0
20260504035200 57 0 0.0 0.0 0.00 0.00 0.00 90 1018.0
20260504034700 58 270 1.0 2.0 0.00 0.00 0.00 90 1017.9
20260504034200 58 271 0.0 2.0 0.00 0.00 0.00 90 1018.0
20260504033700 58 0 0.0 0.0 0.00 0.00 0.00 90 1018.0
20260504033200 58 349 1.0 2.0 0.00 0.00 0.00 90 1018.0
20260504032700 58 0 0.0 0.0 0.00 0.00 0.00 89 1018.0
20260504032200 58 0 0.0 0.0 0.00 0.00 0.00 89 1018.0
20260504031700 59 105 1.0 2.0 0.00 0.00 0.00 89 1018.0
20260504031200 59 97 0.0 0.0 0.00 0.00 0.00 89 1018.0
20260504030700 59 149 0.0 1.0 0.00 0.00 0.00 89 1018.1
20260504030200 59 79 2.0 2.0 0.00 0.00 0.00 89 1018.0
20260504025700 59 108 0.0 0.0 0.00 0.00 0.00 88 1018.1
20260504025200 59 0 0.0 0.0 0.00 0.00 0.00 88 1018.1
20260504024701 59 0 0.0 0.0 0.00 0.00 0.00 87 1018.1
20260504024208 59 0 0.0 0.0 0.00 0.00 0.00 87 1018.0
20260504023700 60 0 0.0 0.0 0.00 0.00 0.00 87 1018.1
20260504023200 60 0 0.0 0.0 0.00 0.00 0.00 86 1018.0
20260504022701 60 257 0.0 1.0 0.00 0.00 0.00 85 1018.0
20260504022200 61 0 0.0 0.0 0.00 0.00 0.00 85 1018.0
20260504021701 61 0 0.0 0.0 0.00 0.00 0.00 85 1018.0
20260504021200 62 272 0.0 2.0 0.00 0.00 0.00 84 1017.9
20260504020700 62 0 0.0 0.0 0.00 0.00 0.00 82 1017.9
20260504020203 62 0 0.0 0.0 0.00 0.00 0.00 82 1017.8
20260504015700 63 92 0.0 2.0 0.00 0.00 0.00 81 1017.7
20260504015202 63 0 0.0 0.0 0.00 0.00 0.00 80 1017.7
20260504014700 64 0 0.0 0.0 0.00 0.00 0.00 79 1017.8
20260504014200 64 0 0.0 0.0 0.00 0.00 0.00 78 1017.8
20260504013700 65 0 0.0 0.0 0.00 0.00 0.00 76 1017.7
20260504013201 65 0 0.0 0.0 0.00 0.00 0.00 75 1017.8
20260504012702 65 331 0.0 0.0 0.00 0.00 0.00 75 1017.8
20260504012200 66 88 0.0 2.0 0.00 0.00 0.00 74 1017.8
20260504011700 67 82 1.0 3.0 0.00 0.00 0.00 73 1017.7
20260504011200 67 0 0.0 0.0 0.00 0.00 0.00 72 1017.8
20260504010700 68 0 0.0 0.0 0.00 0.00 0.00 70 1017.7
20260504010200 69 0 0.0 0.0 0.00 0.00 0.00 70 1017.8
20260504005700 70 30 0.0 0.0 0.00 0.00 0.00 66 1017.7
20260504005200 72 49 1.0 2.0 0.00 0.00 0.00 65 1017.7
20260504004700 73 67 0.0 1.0 0.00 0.00 0.00 60 1017.7
20260504004200 74 337 0.0 1.0 0.00 0.00 0.00 58 1017.7
20260504003701 75 18 0.0 0.0 0.00 0.00 0.00 57 1017.6
20260504003200 76 349 0.0 1.0 0.00 0.00 0.00 57 1017.7
20260504002701 77 0 0.0 0.0 0.00 0.00 0.00 55 1017.7
20260504002200 76 0 0.0 0.0 0.00 0.00 0.00 53 1017.6
20260504001700 77 182 0.0 1.0 0.00 0.00 0.00 50 1017.7
20260504001201 77 166 1.0 2.0 0.00 0.00 0.00 49 1017.7
20260504000700 77 0 0.0 0.0 0.00 0.00 0.00 50 1017.8
20260504000201 77 159 1.0 2.0 0.00 0.00 0.00 50 1017.8
20260503235700 77 173 0.0 1.0 0.00 0.00 0.00 49 1017.9
20260503235201 78 215 2.0 3.0 0.00 0.00 0.00 48 1018.0
20260503234700 78 189 0.0 2.0 0.00 0.00 0.00 50 1018.0
20260503234201 78 223 3.0 6.0 0.00 0.00 0.00 47 1018.0
20260503233700 78 174 3.0 4.0 0.00 0.00 0.00 46 1018.0
20260503233200 78 243 3.0 4.0 0.00 0.00 0.00 45 1018.0
20260503232701 78 272 2.0 3.0 0.00 0.00 0.00 46 1018.1
20260503232201 78 276 2.0 4.0 0.00 0.00 0.00 45 1018.1
20260503231702 78 247 2.0 3.0 0.00 0.00 0.00 45 1018.0
20260503231200 77 252 4.0 5.0 0.00 0.00 0.00 45 1018.1
20260503230702 78 257 5.0 6.0 0.00 0.00 0.00 46 1018.2
20260503230200 78 253 5.0 7.0 0.00 0.00 0.00 45 1018.1
20260503225700 78 229 4.0 6.0 0.00 0.00 0.00 46 1018.2
20260503225200 78 248 4.0 5.0 0.00 0.00 0.00 46 1018.2
20260503224700 78 219 3.0 4.0 0.00 0.00 0.00 48 1018.2
20260503224200 78 174 3.0 4.0 0.00 0.00 0.00 44 1018.2
20260503223700 78 269 2.0 4.0 0.00 0.00 0.00 43 1018.3
20260503223200 78 248 3.0 5.0 0.00 0.00 0.00 43 1018.3
20260503222700 78 245 4.0 6.0 0.00 0.00 0.00 45 1018.3
20260503222200 78 247 2.0 4.0 0.00 0.00 0.00 44 1018.4
20260503221700 78 159 0.0 1.0 0.00 0.00 0.00 46 1018.4
20260503221200 78 176 3.0 4.0 0.00 0.00 0.00 46 1018.5
20260503220701 79 207 2.0 2.0 0.00 0.00 0.00 47 1018.6
20260503220201 79 176 3.0 6.0 0.00 0.00 0.00 46 1018.6
20260503215700 79 84 2.0 3.0 0.00 0.00 0.00 41 1018.6
20260503215201 78 257 3.0 4.0 0.00 0.00 0.00 44 1018.7
20260503214700 78 184 2.0 6.0 0.00 0.00 0.00 48 1018.7
20260503214200 78 221 3.0 3.0 0.00 0.00 0.00 45 1018.8